Showing default

COSMOS 1914, 18793

Orbit data source: Space-Track

COSMOS 1914, 18793 is a payload satellite owned by UNKS (CIS) in LEO that was launched on Fri, 15 Jan 1988 UTC via a TSIKLON-3 launch vehicle from the Plesetsk Missile And Space Complex (PKMTR). Payload-class satellites include a variety of spacecraft equipped with specific instruments for various scientific and technological missions. These include communications satellites like Starlink; space stations such as the ISS; scientific satellites like the Hubble; Earth observation satellites from companies like Planet Labs, Umbra, and HawkEye 360; GPS; miniature CubeSats for education and research; and military/defense satellites.

Loading next visibility...
Identifier
18793, 1988-002F
Orbit
LEO
Country
Flag of CISCIS
Related business
Manufacturer
NPO PM
Mission
Defense Communications
Bus & Motor
STRELA-3, Unknown motor
Mass
225 kg wet, 225 kg dry
Launch date (UTC)
1988-01-15 (38 years ago)
Launch vehicle
TSIKLON-3
Launch site
Plesetsk Missile And Space Complex (PKMTR)
Object type
Payload
Rocket body
Debris
Shape & HBR
Cyl, 0.8 m
Radar Cross Section
1.257 m², Large (>1 m²)

Expand to show TLE details & history
Last TLE update: 1 day ago

TLE from 1 day ago
0 COSMOS 1914
1 18793U 88002F   25305.64633457  .00000035  00000-0  13021-3 0  9997
2 18793  82.6102 358.5852 0017721 167.4815   1.6949 12.66453960746980
Epoch: 2025-11-01T15:30Z
TLE epoch observation values (Epoch: 2025-11-01T15:30:43.306Z)
Latitude
10.67928°
Longitude
-96.66319°
Altitude
1,384.636 km
Speed
7.174 km/s
True Right ascension
11h 48m 45s
True Declination
10° 37' 19"
Sunlit
Object was in daylight at epoch
Visualization orbit readout
Latitude
Unknown
Longitude
Unknown
Altitude
Unknown
Speed
Unknown
Apparent Right ascension
Unknown
Apparent Declination
Unknown
Sunlit
N/A
Visualization observer readout
Local Sidereal Time
12:28:10
Azimuth
Unknown
Elevation
Unknown
Doppler factor
Unknown
Orbital elements
Apogee altitude
1,407.505 km
Perigee altitude
1,379.96 km
Semi-major axis
7,771.869 km
Eccentricity
0.00177
Inclination
82.6102°
RAAN
358.5852°
Arg. of periapsis
167.4815°
True anomaly
1.70092°
Mean anomaly
1.6949°
Eccentric anomaly
1.69791°
Mean motion
3.16778 °/min
Orbital period
113.64 mins
BSTAR
0.00013021
Loading maneuver chart data...
Computing Atmospheric mass density...
Loading historical data...
Loading historical data...
Loading historical data...
Loading historical data...
Loading historical data...
Loading historical data...
Loading historical data...

Documentation

Showing up to 5 results
|